Showing default

AEROCUBE 8C, 41853

Orbit data source: Space-Track

AEROCUBE 8C, 41853 is a payload satellite owned by AERO (US) in SSO that was launched on Fri, 11 Nov 2016 UTC via an ATLAS V 401 launch vehicle from the Air Force Western Test Range (AFWTR). Payload-class satellites include a variety of spacecraft equipped with specific instruments for various scientific and technological missions. These include communications satellites like Starlink; space stations such as the ISS; scientific satellites like the Hubble; Earth observation satellites from companies like Planet Labs, Umbra, and HawkEye 360; GPS; miniature CubeSats for education and research; and military/defense satellites.

Loading next visibility...
Identifier
41853, 2016-067F
Orbit
SSO
Country
Flag of USUS
Related business
Manufacturer
AERO
Mission
Operational Defense Technology
Bus & Motor
CUBESAT 1.5U, Unknown motor
Mass
2 kg wet, 2 kg dry
Launch date (UTC)
2016-11-11 (9 years ago)
Launch vehicle
ATLAS V 401
Launch site
Air Force Western Test Range (AFWTR)
Object type
Payload
Rocket body
Debris
Shape & HBR
Box, 0.1 m
Radar Cross Section
0.025 m², Small (<0.1 m²)

Expand to show TLE details & history
Last TLE update: 6 hours ago

TLE from 6 hours ago
0 AEROCUBE 8C
1 41853U 16067F   26123.87033801  .00007532  00000-0  31397-3 0  9998
2 41853  98.0609 347.9650 0004695 198.5231 161.5834 15.24018934519316
Epoch: 2026-05-03T20:53Z
TLE epoch observation values (Epoch: 2026-05-03T20:53:17.204Z)
Latitude
-0.00002°
Longitude
172.87563°
Altitude
499.871 km
Speed
7.613 km/s
True Right ascension
23h 11m 51s
True Declination
0° 00' 00"
Sunlit
Object was in daylight at epoch
Visualization orbit readout
Latitude
Unknown
Longitude
Unknown
Altitude
Unknown
Speed
Unknown
Apparent Right ascension
Unknown
Apparent Declination
Unknown
Sunlit
N/A
Visualization observer readout
Local Sidereal Time
10:27:08
Azimuth
Unknown
Elevation
Unknown
Doppler factor
Unknown
Orbital elements
Apogee altitude
493.948 km
Perigee altitude
487.498 km
Semi-major axis
6,868.86 km
Eccentricity
0.00047
Inclination
98.0609°
RAAN
347.965°
Arg. of periapsis
198.5231°
True anomaly
161.60039°
Mean anomaly
161.5834°
Eccentric anomaly
161.59189°
Mean motion
3.81256 °/min
Orbital period
94.42 mins
BSTAR
0.00031397
Loading maneuver chart data...
Computing Atmospheric mass density...
Loading historical data...
Loading historical data...
Loading historical data...
Loading historical data...
Loading historical data...
Loading historical data...
Loading historical data...

Documentation

Showing up to 5 results
|